Arlanda current weather conditions

sailwx.info

Wind from 290 at 2 knots

Air temperature -11.0° C
Visibility: greater than 5.4 NM
Dewpoint -12.0° C

Last reported at 2016-Dec-03 20:20 UTC.
Time now 2016-Dec-03 21:54 UTC

Location: N 59°39' E 017°56'.
View on Google Maps.

See reports from other nearby stations

  
Tides and Currents Weather Stations Pressure Air Temp Water Temp Dewpoint Dewpoint Depression Visibility Wind Speed Wind Dir Waves Ship Positions
date/time (UTC)wind fromknots sea level pressurealtimeterstation pressurevisibilityair tempwater tempwave heightnotes
2016-Dec-03 20:20 290 2 5.4-11.0
2016-Dec-03 19:50 240 2 5.4-8.0
2016-Dec-03 19:20 230 4 5.4-8.0
2016-Dec-03 18:50 240 6 5.4-7.0
2016-Dec-03 18:20 320 5 5.4-7.0
2016-Dec-03 17:50 330 5 5.4-7.0
2016-Dec-03 17:20 330 5 5.4-7.0
2016-Dec-03 16:50 330 5 5.4-7.0
2016-Dec-03 16:20 310 4 5.4-7.0
2016-Dec-03 15:50 310 4 5.4-7.0
2016-Dec-03 15:20 280 4 5.4-6.0
2016-Dec-03 14:50 290 2 5.4-5.0
2016-Dec-03 14:20 290 4 5.4-4.0
2016-Dec-03 13:50 310 6 5.4-3.0
2016-Dec-03 13:20 300 6 5.4-3.0
2016-Dec-03 12:50 300 7 5.4-3.0
2016-Dec-03 12:20 300 6 5.4-3.0
2016-Dec-03 11:50 300 6 5.4-3.0
2016-Dec-03 11:20 300 5 5.4-3.0
2016-Dec-03 10:50 290 4 5.4-3.0
2016-Dec-03 10:20 310 4 5.4-3.0
2016-Dec-03 09:50 310 4 5.4-3.0
2016-Dec-03 09:20 330 5 5.4-3.0
2016-Dec-03 08:50 310 4 5.4-3.0
2016-Dec-03 08:20 310 4 5.4-4.0
2016-Dec-03 07:50 310 4 5.4-5.0
2016-Dec-03 07:20 320 2 5.4-5.0
2016-Dec-03 06:50 320 2 5.4-4.0
2016-Dec-03 06:20 290 2 5.4-4.0
2016-Dec-03 05:50 280 5 5.4-4.0
2016-Dec-03 05:20 290 2 5.4-5.0
2016-Dec-03 04:50 270 5 5.4-5.0
2016-Dec-03 04:20 260 5 5.4-6.0
2016-Dec-03 03:50 250 5 5.4-7.0
2016-Dec-03 03:20 270 2 5.4-7.0
2016-Dec-03 02:50 260 4 5.4-8.0
2016-Dec-03 02:20 270 5 5.4-8.0
2016-Dec-03 01:50 290 4 5.4-9.0
2016-Dec-03 01:20 270 5 5.4-7.0
2016-Dec-03 00:50 270 5 5.4-7.0
2016-Dec-03 00:20 280 2 5.4-7.0
2016-Dec-02 23:50 280 4 5.4-5.0
2016-Dec-02 23:20 270 6 5.4-4.0
2016-Dec-02 22:50 270 5 5.4-4.0
2016-Dec-02 22:20 300 5 5.4-3.0
2016-Dec-02 21:50 320 7 5.4-3.0
2016-Dec-02 21:20 320 7 5.4-3.0
2016-Dec-02 20:50 310 7 5.4-3.0
2016-Dec-02 20:20 320 8 5.4-3.0
2016-Dec-02 19:50 320 9 5.4-2.0
2016-Dec-02 19:20 320 9 5.4-2.0
2016-Dec-02 18:50 330 11 5.4-2.0
2016-Dec-02 18:20 330 11 5.4-2.0
2016-Dec-02 17:50 320 12 5.4-2.0
2016-Dec-02 17:20 320 11 5.4-1.0
2016-Dec-02 16:50 320 13 5.4-1.0
2016-Dec-02 16:20 330 13 5.4-0.0
2016-Dec-02 15:50 330 13 5.4-0.0
2016-Dec-02 15:20 330 12 5.4-0.0
2016-Dec-02 14:50 330 13 5.4-0.0
2016-Dec-02 14:20 330 13 5.4-0.0
2016-Dec-02 13:50 330 13 5.4-0.0
2016-Dec-02 13:20 330 13 5.4 1.0
2016-Dec-02 12:50 320 13 5.4 1.0
2016-Dec-02 12:20 320 13 5.4 1.0
2016-Dec-02 11:50 330 11 5.4-0.0 Light drizzle.
2016-Dec-02 11:20 330 13 5.4-0.0 Light snow showers.
2016-Dec-02 10:50 330 13 5.4 1.0
2016-Dec-02 10:20 330 13 5.4-0.0
2016-Dec-02 09:50 340 12 5.4 1.0
2016-Dec-02 09:20 320 11 5.4 1.0
2016-Dec-02 08:50 310 7 5.4-0.0
2016-Dec-02 08:20 330 8 5.4-0.0
2016-Dec-02 07:50 330 9 5.4-0.0
2016-Dec-02 07:20 330 9 2.7-0.0 Light snow.
2016-Dec-02 06:50 320 11 4.3-0.0 Light snow.
2016-Dec-02 06:20 320 12 5.4-0.0 Light snow showers.
2016-Dec-02 05:50 310 9 5.4-0.0
2016-Dec-02 05:20 300 7 5.4-0.0
2016-Dec-02 04:50 300 8 5.4-1.0
2016-Dec-02 04:20 300 9 5.4-1.0
2016-Dec-02 03:50 290 11 5.4-2.0
2016-Dec-02 03:20 290 8 5.4-2.0
2016-Dec-02 02:50 300 8 5.4-2.0
2016-Dec-02 02:20 290 8 5.4-2.0
2016-Dec-02 01:50 290 9 5.4-2.0
2016-Dec-02 01:20 300 8 5.4-2.0
2016-Dec-02 00:50 300 9 5.4-2.0
2016-Dec-02 00:20 310 7 5.4-2.0
2016-Dec-01 23:50 310 7 5.4-2.0
2016-Dec-01 23:20 310 6 5.4-2.0
2016-Dec-01 22:50 290 6 5.4-2.0
2016-Dec-01 22:20 290 7 5.4-3.0
2016-Dec-01 21:50 290 7 5.4-3.0
2016-Dec-01 21:20 300 9 5.4-3.0